Back to catalog

COSMOS 2566

AliveNavigationLEO
NORAD 54383·PAYLOAD·🇷🇺 Russia

Launched Nov 30, 2022 from Plesetsk Cosmodrome

Loading…

Next Passes (next 24 hours)

TLE

FreshSource: Space-Track

Epoch: Sep 14, 2026, 05:53 UTC

1 54383U 22163C   26257.24539101 -.00000018  00000-0  40916-4 0  9998
2 54383  67.1410 245.2152 0009020 329.0407  31.0145 13.97721990193017

Track COSMOS 2566 in real time with AllMySat

Download on the App Store